Location: *
(52.2839°S, 177.1511°E)
Time: 00:24:30
(UTC+00:00)

Daily predictions for brighter satellites

Satellite Brightness Start Highest point End
(mag) Time Altitude Azimuth Time Altitude Azimuth Time Altitude Azimuth
USA 215 3.5 05:45:25 10° E 05:51:58 66° SSE 05:58:31 10° WSW
Cosmos 1933 3.5 05:50:56 10° N 05:55:00 57° E 05:59:07 10° SSE
ADEOS Rocket 4.2 05:51:32 10° ENE 05:58:26 36° SE 06:05:21 10° S
Meteor 1-25 Rocket 4.2 05:55:04 10° S 06:00:44 69° ESE 06:06:20 10° NNE
Cosmos 2227 Rocket 4.4 05:58:41 10° SSW 06:00:55 12° S 06:03:09 10° SSE
Cosmos 1844 3.9 05:55:47 10° NNW 06:01:37 83° WSW 06:07:28 10° SSE
Kosmos-1783 2.4 06:01:47 10° NW 06:04:10 42° NE 06:05:12 13° ESE
ISS -1.4 06:03:21 10° NNE 06:04:45 12° NE 06:06:09 10° ENE
SL-27 R/B 4.3 06:09:45 10° SSE 06:11:36 14° SE 06:12:54 12° ESE
Cosmos 1092 Rocket 4.2 06:05:56 10° NNE 06:11:59 51° E 06:18:10 10° SSE
SMAP 3.5 06:07:45 10° SSE 06:12:16 41° E 06:16:43 10° NNE
Cosmos 1763 Rocket 4.2 06:10:15 10° NNE 06:14:50 31° ENE 06:19:24 10° SE
Cosmos 2297 Rocket 4.4 06:15:02 10° SSW 06:17:03 12° S 06:19:03 10° SSE
Meteor 1-20 Rocket 4.4 06:13:09 10° SSW 06:19:02 90° SW 06:24:56 10° N
H-2A R/B 3.4 06:15:40 10° SSE 06:19:21 34° E 06:22:57 10° NNE
Lacrosse 5 2.6 06:14:52 10° NNW 06:19:32 36° NE 06:23:39 13° ESE
Cosmos 1898 Rocket 3.6 06:14:53 10° SSW 06:20:20 88° WNW 06:25:44 10° NNE
Cosmos 1606 2.7 06:16:35 10° N 06:20:32 74° E 06:24:31 10° SSE
Meteor 1-14 Rocket 4.3 06:16:31 10° S 06:22:27 77° ESE 06:28:25 10° NNE
Lacrosse 5 rocket 1.3 06:18:52 10° NW 06:23:04 74° NNE 06:26:30 14° ESE
CZ-4 R/B 2.8 06:21:19 10° SE 06:24:26 19° E 06:27:29 10° NE
NOAA 6 4.5 06:19:37 10° SSE 06:24:53 69° WSW 06:30:03 10° NNW
Radarsat Rocket 3.9 06:18:50 10° SSE 06:24:55 78° ENE 06:30:47 10° NNW
ERBS 3.6 06:22:31 10° WSW 06:25:50 41° NW 06:29:07 10° NNE
CZ-2C R/B 3.6 06:22:00 10° NNE 06:26:29 86° ESE 06:31:03 10° SSW
USA 81 4.3 06:21:44 10° NNE 06:26:50 48° E 06:31:59 10° SSE
SL-8 R/B 4.1 06:22:50 10° WNW 06:27:34 55° N 06:31:30 15° ENE
Cosmos 1782 3.1 06:24:30 10° NNE 06:28:21 44° E 06:32:16 10° SSE
Cosmos 1356 Rocket 4.3 06:25:15 10° NNW 06:29:13 52° WSW 06:33:16 10° S
Cosmos 2278 Rocket 2.2 06:24:16 10° NNW 06:29:53 63° ENE 06:35:33 10° SE
Okean O Rocket 3.0 06:29:24 10° S 06:33:41 43° WSW 06:37:53 10° NW
CORIOLIS 4.3 06:30:05 10° SSE 06:35:29 53° E 06:40:51 10° N
FENGYUN 3A 4.2 06:33:07 10° S 06:38:37 65° WSW 06:44:02 10° NNW
CZ-4C R/B 2.5 06:32:44 10° SW 06:38:38 65° NW 06:43:38 10° NNE
Cosmos 1400 Rocket 4.3 06:36:38 10° NE 06:43:46 - SSE 06:38:23 17° ENE
DNEPR-1 R/B 3.5 06:36:22 10° NNW 06:41:06 71° NE 06:44:45 14° SE
Cosmos 841 Rocket 4.2 06:36:37 10° NNE 06:41:18 32° ENE 06:46:00 10° SE
ALOS 3.2 06:37:04 10° S 06:41:41 51° WSW 06:46:15 10° NW
Cosmos 1125 Rocket 4.2 06:38:18 10° SSW 06:43:07 34° SE 06:46:09 19° ENE
SJ 16-02 1.4 06:39:18 10° SSW 06:43:47 88° WNW 06:48:13 10° NNE
Okean-O 2.7 06:39:38 10° SSE 06:44:09 60° ENE 06:48:35 10° N
Cosmos 1844 Rocket 4.1 06:45:25 10° WNW 06:50:36 36° SW 06:55:49 10° SSE
Cosmos 1553 Rocket 4.0 06:44:51 10° S 06:50:58 60° ESE 06:57:03 10° NNE
Cosmos 1428 Rocket 4.5 06:45:05 10° N 06:51:07 58° E 06:57:11 10° SSE
Cosmos 1707 Rocket 3.5 06:47:10 10° N 06:51:30 67° E 06:55:55 10° SSE
BREEZE-M DEB (TANK) 4.0 06:38:37 10° WNW 06:54:12 60° N 06:57:03 24° E
Cosmos 1570 Rocket 4.0 06:49:33 10° N 06:54:52 64° ENE 07:00:14 10° SSE
NOAA 12 4.2 06:51:00 10° SSE 06:56:22 55° E 07:01:38 10° N
CZ-2C R/B 3.6 06:55:05 22° E 06:57:19 29° ESE 07:02:09 10° S
YAOGAN 1 3.3 06:54:57 10° SSE 06:58:53 30° E 07:02:46 10° NNE
BREEZE-M DEB 3.4 06:59:21 10° NW 07:02:03 49° NNE 07:04:47 26° E
Cosmos 1417 Rocket 4.5 06:56:40 10° S 07:03:06 72° ESE 07:09:23 10° NNE
Cosmos 1937 Rocket 4.2 06:58:34 10° SSW 07:03:42 56° WNW 07:08:49 10° N
AQUARIUS 4.3 06:59:22 10° SSE 07:03:59 78° WSW 07:08:32 10° NNW
ATLAS CENTAUR R/B 2.7 07:03:21 10° W 07:06:31 30° SSW 07:09:14 13° SSE
Cosmos 2297 4.0 07:01:59 10° N 07:07:26 44° ENE 07:12:32 12° SE
Cosmos 1814 Rocket 4.2 07:03:13 10° N 07:08:25 52° ENE 07:13:41 10° SSE
Cosmos 372 Rocket 3.9 07:05:18 10° SSW 07:10:29 74° ESE 07:14:29 17° NNE
Cosmos 724 4.3 07:06:11 10° NW 07:12:00 88° SW 07:17:28 13° SE
Cosmos 2242 Rocket 4.2 07:10:37 10° NNE 07:15:27 35° ESE 07:18:53 10° SSE
ATLAS 5 CENTAUR R/B 2.9 07:10:34 10° NNW 07:17:04 44° ENE 07:20:00 28° ESE
S3M 4.0 07:10:41 10° S 07:17:11 73° ESE 07:23:38 10° NNE
Cosmos 1733 Rocket 3.1 07:13:15 10° SSW 07:17:47 83° W 07:22:12 10° N
NOSS 3-3 (C) 4.3 07:12:36 10° SW 07:19:30 56° SSE 07:22:16 33° E
NOSS 3-3 (A) 4.3 07:12:37 10° SW 07:19:31 56° SSE 07:22:18 33° E
Cosmos 468 Rocket 4.2 07:14:19 10° NNW 07:19:31 71° WSW 07:24:46 10° SSE
deb Kosmos-1763 4.4 07:18:05 10° SSW 07:21:39 47° SE 07:21:39 47° SE
Cosmos 1833 Rocket 4.4 07:17:12 10° SW 07:22:14 33° WNW 07:27:13 10° NNW
Meteor 2-6 Rocket 4.2 07:17:07 10° N 07:23:00 81° E 07:28:48 10° SSE
Envisat 2.9 07:18:30 10° SSE 07:23:41 68° ENE 07:28:48 10° N
CSL-04 Debris 4.3 07:19:09 10° SSE 07:24:37 52° E 07:29:59 10° N
FengYun 1-2 T 4.2 07:19:18 10° SSE 07:24:49 57° E 07:30:16 10° N
Cosmos 540 Rocket 3.5 07:20:50 10° N 07:25:55 55° ENE 07:30:09 15° SE
CZ-4 R/B 4.3 07:21:41 10° SSE 07:25:55 69° ENE 07:30:05 10° N
GEOS 3 Rocket 4.1 07:26:18 36° ENE 07:26:33 37° ENE 07:31:22 10° N
Cosmos 2082 Rocket 3.5 07:22:38 10° SW 07:27:55 40° WNW 07:33:07 10° N
Cosmos 1655 Rocket 4.0 07:22:47 10° N 07:29:08 68° E 07:35:36 10° SSE
Cosmos 1500 3.1 07:25:56 10° S 07:29:52 71° E 07:30:16 64° ENE
Cosmos 2315 Rocket 4.3 07:24:03 10° S 07:30:15 48° ESE 07:32:31 35° ENE
Thor Agena Rocket 4.4 07:31:53 32° SE 07:31:53 32° SE 07:36:24 10° S
Cosmos 2208 Rocket 4.0 07:26:59 10° NNW 07:32:14 81° WSW 07:37:36 10° SSE
Cosmos 2150 Rocket 4.3 07:28:25 10° SSW 07:33:45 67° WNW 07:38:28 13° N
USA 215 3.4 07:31:11 28° NE 07:34:57 75° NNW 07:41:37 10° WSW
Meteor 1-11 Rocket 3.8 07:34:49 10° SSW 07:40:31 79° W 07:46:16 10° N
SL-6 Rocket (2) 4.5 07:36:24 10° WNW 07:40:32 34° SW 07:40:34 34° SW
ISS -2.3 07:37:34 10° NW 07:39:38 30° NNW 07:39:38 30° NNW
Meteor 2-13 Rocket 4.5 07:34:57 10° NNE 07:40:54 53° E 07:46:52 10° SSE
Meteor 1-10 Rocket 4.3 07:36:32 10° NNW 07:42:24 83° WSW 07:48:12 10° SSE
BREEZE-M DEB (TANK) 4.1 07:31:25 10° W 07:43:14 56° NNW 07:44:43 39° NNE
ADEOS Rocket 3.8 07:35:39 10° N 07:43:23 72° WNW 07:51:16 10° SSW
Cosmos 1340 4.1 07:41:38 10° S 07:43:43 29° S 07:43:43 29° S
Cosmos 1346 Rocket 3.5 07:41:37 10° S 07:44:36 42° SSE 07:44:36 42° SSE
SL-27 R/B 3.0 07:43:46 10° SSW 07:46:30 52° SW 07:46:30 52° SW
Cosmos 2227 Rocket 4.2 07:44:37 10° SSW 07:47:41 14° SSE 07:48:48 14° SSE
Cosmos 1862 Rocket 3.8 07:50:31 10° NNW 07:55:00 69° WSW 07:59:31 10° S
Cosmos 1536 2.9 07:51:42 10° SSW 07:55:39 76° WSW 07:55:39 76° WSW
Cosmos 1763 Rocket 4.4 07:51:23 10° NW 07:56:28 49° WSW 08:01:33 10° SSE
CSL-04 Rocket 3.5 07:51:03 10° SSE 07:56:31 87° ENE 08:01:51 10° NNW
Meteor 1-27 Rocket 3.5 07:52:18 10° N 07:57:53 85° E 08:03:31 10° SSE
CZ-4 R/B 2.1 07:55:35 10° S 07:59:49 57° WSW 08:03:56 10° NNW
Lacrosse 5 1.9 07:57:07 10° WNW 08:02:16 77° SSW 08:02:51 67° SSE
Lacrosse 5 rocket 2.1 07:58:29 10° W 08:02:09 45° SSW 08:02:09 45° SSW
Cosmos 2297 Rocket 4.1 08:00:12 10° SSW 08:03:43 16° SSE 08:04:05 16° SSE
Cosmos 2278 Rocket 3.8 08:09:14 10° WNW 08:14:23 33° SW 08:19:34 10° SSE
Cosmos 1400 Rocket 4.2 08:11:49 10° NNW 08:19:07 13° S 08:19:39 10° S
Cosmos 1908 Rocket 4.4 08:14:50 10° SSW 08:19:12 50° W 08:19:37 48° WNW
SJ 16-02 4.4 08:19:46 10° WSW 08:21:38 12° W 08:23:29 10° WNW
Cosmos 841 Rocket 4.4 08:17:51 10° NW 08:23:01 49° WSW 08:28:13 10° SSE
Cosmos 1125 Rocket 4.3 08:20:19 10° SSW 08:25:25 49° WNW 08:26:28 42° NW
YAOGAN 1 4.0 08:30:58 10° S 08:35:03 38° WSW 08:39:07 10° NW
CZ-2C R/B 3.1 08:36:35 58° NW 08:37:15 62° WNW 08:42:56 10° SSW
Cosmos 2266 Rocket 4.4 08:38:05 10° NNW 08:44:10 60° WSW 08:50:29 10° S
Timation 2 Rocket 4.2 08:37:54 10° SSW 08:43:57 69° SSE 08:43:57 69° SSE
ATLAS CENTAUR R/B 4.1 08:44:38 10° SW 08:45:27 12° SSW 08:45:27 12° SSW
ATLAS 5 CENTAUR R/B 2.8 08:55:00 10° WNW 09:01:36 63° SW 09:01:36 63° SW
Cosmos 2227 Rocket 4.2 09:28:19 10° SSW 09:30:37 22° S 09:30:37 22° S
Lacrosse 5 4.3 09:40:43 10° WSW 09:42:05 18° WSW 09:42:05 18° WSW
Cosmos 2297 Rocket 4.3 09:43:52 10° SSW 09:45:53 21° SSW 09:45:53 21° SSW
